Year,Month,Day,Hour,Minute,Value (Times are PST for temperature in C)
2009,09,22,00,00,15.30
2009,09,22,00,01,15.30
2009,09,22,00,02,15.20
2009,09,22,00,03,15.10
2009,09,22,00,04,15.00
2009,09,22,00,05,15.00
2009,09,22,00,06,15.00
2009,09,22,00,07,15.00
2009,09,22,00,08,15.00
2009,09,22,00,09,15.00
2009,09,22,00,10,15.00
2009,09,22,00,11,15.00
2009,09,22,00,12,15.00
2009,09,22,00,13,15.00
2009,09,22,00,14,15.00
2009,09,22,00,15,15.00
2009,09,22,00,16,15.00
2009,09,22,00,17,15.20
2009,09,22,00,18,15.30
2009,09,22,00,19,15.30
2009,09,22,00,20,15.30
2009,09,22,00,21,15.30
2009,09,22,00,22,15.20
2009,09,22,00,23,15.20
2009,09,22,00,24,15.10
2009,09,22,00,25,15.00
2009,09,22,00,26,15.00
2009,09,22,00,27,15.00
2009,09,22,00,28,15.00
2009,09,22,00,29,15.00
2009,09,22,00,30,15.00
2009,09,22,00,31,15.00
2009,09,22,00,32,14.90
2009,09,22,00,33,14.80
2009,09,22,00,34,14.70
2009,09,22,00,35,14.60
2009,09,22,00,36,14.60
2009,09,22,00,37,14.50
2009,09,22,00,38,14.40
2009,09,22,00,39,14.30
2009,09,22,00,40,14.30
2009,09,22,00,41,14.20
2009,09,22,00,42,14.10
2009,09,22,00,43,14.00
2009,09,22,00,44,13.90
2009,09,22,00,45,13.80
2009,09,22,00,46,13.80
2009,09,22,00,47,13.70
2009,09,22,00,48,13.70
2009,09,22,00,49,13.60
2009,09,22,00,50,13.60
2009,09,22,00,51,13.50
2009,09,22,00,52,13.50
2009,09,22,00,53,13.40
2009,09,22,00,54,13.30
2009,09,22,00,55,13.20
2009,09,22,00,56,13.10
2009,09,22,00,57,13.10
2009,09,22,00,58,13.00
2009,09,22,00,59,12.90
2009,09,22,01,00,12.80
2009,09,22,01,01,12.80
2009,09,22,01,02,12.70
2009,09,22,01,03,12.70
2009,09,22,01,04,12.60
2009,09,22,01,05,12.60
2009,09,22,01,06,12.50
2009,09,22,01,07,12.50
2009,09,22,01,08,12.40
2009,09,22,01,09,12.30
2009,09,22,01,10,12.30
2009,09,22,01,11,12.20
2009,09,22,01,12,12.20
2009,09,22,01,13,12.20
2009,09,22,01,14,12.10
2009,09,22,01,15,12.10
2009,09,22,01,16,12.00
2009,09,22,01,17,12.00
2009,09,22,01,18,11.90
2009,09,22,01,19,11.90
2009,09,22,01,20,11.90
2009,09,22,01,21,11.80
2009,09,22,01,22,11.90
2009,09,22,01,23,11.90
2009,09,22,01,24,11.90
2009,09,22,01,25,11.90
2009,09,22,01,26,12.00
2009,09,22,01,27,12.00
2009,09,22,01,28,11.90
2009,09,22,01,29,11.90
2009,09,22,01,30,12.00
2009,09,22,01,31,12.00
2009,09,22,01,32,12.10
2009,09,22,01,33,12.10
2009,09,22,01,34,12.10
2009,09,22,01,35,12.20
2009,09,22,01,36,12.20
2009,09,22,01,37,12.30
2009,09,22,01,38,12.30
2009,09,22,01,39,12.30
2009,09,22,01,40,12.30
2009,09,22,01,41,12.30
2009,09,22,01,42,12.30
2009,09,22,01,43,12.20
2009,09,22,01,44,12.20
2009,09,22,01,45,12.20
2009,09,22,01,46,12.20
2009,09,22,01,47,12.20
2009,09,22,01,48,12.20
2009,09,22,01,49,12.20
2009,09,22,01,50,12.20
2009,09,22,01,51,12.20
2009,09,22,01,52,12.20
2009,09,22,01,53,12.30
2009,09,22,01,54,12.30
2009,09,22,01,55,12.30
2009,09,22,01,56,12.40
2009,09,22,01,57,12.40
2009,09,22,01,58,12.40
2009,09,22,01,59,12.40
2009,09,22,02,00,12.50
2009,09,22,02,01,12.50
2009,09,22,02,02,12.50
2009,09,22,02,03,12.60
2009,09,22,02,04,12.60
2009,09,22,02,05,12.60
2009,09,22,02,06,12.50
2009,09,22,02,07,12.50
2009,09,22,02,08,12.50
2009,09,22,02,09,12.60
2009,09,22,02,10,12.60
2009,09,22,02,11,12.60
2009,09,22,02,12,12.60
2009,09,22,02,13,12.60
2009,09,22,02,14,12.60
2009,09,22,02,15,12.60
2009,09,22,02,16,12.60
2009,09,22,02,17,12.50
2009,09,22,02,18,12.50
2009,09,22,02,19,12.50
2009,09,22,02,20,12.50
2009,09,22,02,21,12.60
2009,09,22,02,22,12.60
2009,09,22,02,23,12.60
2009,09,22,02,24,12.60
2009,09,22,02,25,12.60
2009,09,22,02,26,12.70
2009,09,22,02,27,12.70
2009,09,22,02,28,12.80
2009,09,22,02,29,12.80
2009,09,22,02,30,12.90
2009,09,22,02,31,13.00
2009,09,22,02,32,13.10
2009,09,22,02,33,13.20
2009,09,22,02,34,13.20
2009,09,22,02,35,13.20
2009,09,22,02,36,13.20
2009,09,22,02,37,13.20
2009,09,22,02,38,13.20
2009,09,22,02,39,13.20
2009,09,22,02,40,13.20
2009,09,22,02,41,13.20
2009,09,22,02,42,13.10
2009,09,22,02,43,13.10
2009,09,22,02,44,13.10
2009,09,22,02,45,13.00
2009,09,22,02,46,13.00
2009,09,22,02,47,12.90
2009,09,22,02,48,12.90
2009,09,22,02,49,12.80
2009,09,22,02,50,12.90
2009,09,22,02,51,12.90
2009,09,22,02,52,13.00
2009,09,22,02,53,13.00
2009,09,22,02,54,13.10
2009,09,22,02,55,13.00
2009,09,22,02,56,13.00
2009,09,22,02,57,13.00
2009,09,22,02,58,12.90
2009,09,22,02,59,12.90
2009,09,22,03,00,12.80
2009,09,22,03,01,12.80
2009,09,22,03,02,12.80
2009,09,22,03,03,12.80
2009,09,22,03,04,12.70
2009,09,22,03,05,12.70
2009,09,22,03,06,12.70
2009,09,22,03,07,12.60
2009,09,22,03,08,12.60
2009,09,22,03,09,12.50
2009,09,22,03,10,12.50
2009,09,22,03,11,12.40
2009,09,22,03,12,12.40
2009,09,22,03,13,12.40
2009,09,22,03,14,12.30
2009,09,22,03,15,12.30
2009,09,22,03,16,12.30
2009,09,22,03,17,12.30
2009,09,22,03,18,12.30
2009,09,22,03,19,12.30
2009,09,22,03,20,12.20
2009,09,22,03,21,12.20
2009,09,22,03,22,12.20
2009,09,22,03,23,12.20
2009,09,22,03,24,12.20
2009,09,22,03,25,12.10
2009,09,22,03,26,12.10
2009,09,22,03,27,12.10
2009,09,22,03,28,12.00
2009,09,22,03,29,12.00
2009,09,22,03,30,12.00
2009,09,22,03,31,12.00
2009,09,22,03,32,12.00
2009,09,22,03,33,12.00
2009,09,22,03,34,11.90
2009,09,22,03,35,11.90
2009,09,22,03,36,11.90
2009,09,22,03,37,11.80
2009,09,22,03,38,11.80
2009,09,22,03,39,11.80
2009,09,22,03,40,11.70
2009,09,22,03,41,11.70
2009,09,22,03,42,11.60
2009,09,22,03,43,11.60
2009,09,22,03,44,11.50
2009,09,22,03,45,11.50
2009,09,22,03,46,11.40
2009,09,22,03,47,11.30
2009,09,22,03,48,11.30
2009,09,22,03,49,11.30
2009,09,22,03,50,11.30
2009,09,22,03,51,11.20
2009,09,22,03,52,11.20
2009,09,22,03,53,11.20
2009,09,22,03,54,11.20
2009,09,22,03,55,11.10
2009,09,22,03,56,11.10
2009,09,22,03,57,11.10
2009,09,22,03,58,11.10
2009,09,22,03,59,11.10
2009,09,22,04,00,11.10
2009,09,22,04,01,11.10
2009,09,22,04,02,11.10
2009,09,22,04,03,11.20
2009,09,22,04,04,11.30
2009,09,22,04,18,11.70
2009,09,22,04,19,11.70
2009,09,22,04,20,11.70
2009,09,22,04,21,11.70
2009,09,22,04,22,11.70
2009,09,22,04,23,11.70
2009,09,22,04,24,11.70
2009,09,22,04,25,11.70
2009,09,22,04,26,11.60
2009,09,22,04,27,11.60
2009,09,22,04,28,11.60
2009,09,22,04,29,11.60
2009,09,22,04,30,11.50
2009,09,22,04,31,11.50
2009,09,22,04,32,11.50
2009,09,22,04,33,11.40
2009,09,22,04,34,11.40
2009,09,22,04,35,11.30
2009,09,22,04,36,11.30
2009,09,22,04,37,11.30
2009,09,22,04,38,11.20
2009,09,22,04,39,11.20
2009,09,22,04,40,11.20
2009,09,22,04,41,11.10
2009,09,22,04,42,11.10
2009,09,22,04,43,11.10
2009,09,22,04,44,11.00
2009,09,22,04,45,11.00
2009,09,22,04,46,10.90
2009,09,22,04,47,10.90
2009,09,22,04,48,10.90
2009,09,22,04,49,10.90
2009,09,22,04,50,10.80
2009,09,22,04,51,10.80
2009,09,22,04,52,10.80
2009,09,22,04,53,10.80
2009,09,22,04,54,10.80
2009,09,22,04,55,10.80
2009,09,22,04,56,10.80
2009,09,22,04,57,10.70
2009,09,22,04,58,10.70
2009,09,22,04,59,10.70
2009,09,22,05,00,10.70
2009,09,22,05,01,10.70
2009,09,22,05,02,10.70
2009,09,22,05,03,10.70
2009,09,22,05,04,10.70
2009,09,22,05,05,10.70
2009,09,22,05,06,10.70
2009,09,22,05,07,10.70
2009,09,22,05,08,10.70
2009,09,22,05,09,10.70
2009,09,22,05,10,10.70
2009,09,22,05,11,10.70
2009,09,22,05,12,10.70
2009,09,22,05,13,10.70
2009,09,22,05,14,10.70
2009,09,22,05,15,10.70
2009,09,22,05,16,10.70
2009,09,22,05,17,10.70
2009,09,22,05,18,10.70
2009,09,22,05,19,10.70
2009,09,22,05,20,10.70
2009,09,22,05,21,10.70
2009,09,22,05,22,10.60
2009,09,22,05,23,10.60
2009,09,22,05,24,10.60
2009,09,22,05,25,10.60
2009,09,22,05,26,10.60
2009,09,22,05,27,10.60
2009,09,22,05,28,10.60
2009,09,22,05,29,10.50
2009,09,22,05,30,10.50
2009,09,22,05,31,10.50
2009,09,22,05,32,10.40
2009,09,22,05,33,10.40
2009,09,22,05,34,10.40
2009,09,22,05,35,10.40
2009,09,22,05,36,10.40
2009,09,22,05,37,10.30
2009,09,22,05,38,10.30
2009,09,22,05,39,10.30
2009,09,22,05,40,10.30
2009,09,22,05,41,10.30
2009,09,22,05,42,10.30
2009,09,22,05,43,10.20
2009,09,22,05,44,10.20
2009,09,22,05,45,10.20
2009,09,22,05,46,10.20
2009,09,22,05,47,10.20
2009,09,22,05,48,10.10
2009,09,22,05,49,10.10
2009,09,22,05,50,10.10
2009,09,22,05,51,10.10
2009,09,22,05,52,10.00
2009,09,22,05,53,10.00
2009,09,22,05,54,10.00
2009,09,22,05,55,9.90
2009,09,22,05,56,9.90
2009,09,22,05,57,9.90
2009,09,22,05,58,10.00
2009,09,22,05,59,10.00
2009,09,22,06,00,10.00
2009,09,22,06,01,10.10
2009,09,22,06,02,10.10
2009,09,22,06,03,10.20
2009,09,22,06,04,10.30
2009,09,22,06,05,10.40
2009,09,22,06,06,10.50
2009,09,22,06,07,10.60
2009,09,22,06,08,10.60
2009,09,22,06,09,10.60
2009,09,22,06,10,10.60
2009,09,22,06,11,10.60
2009,09,22,06,12,10.60
2009,09,22,06,13,10.60
2009,09,22,06,14,10.70
2009,09,22,06,15,10.70
2009,09,22,06,16,10.70
2009,09,22,06,17,10.80
2009,09,22,06,18,10.80
2009,09,22,06,19,10.70
2009,09,22,06,20,10.70
2009,09,22,06,21,10.70
2009,09,22,06,22,10.70
2009,09,22,06,23,10.60
2009,09,22,06,24,10.60
2009,09,22,06,25,10.60
2009,09,22,06,26,10.60
2009,09,22,06,27,10.50
2009,09,22,06,28,10.50
2009,09,22,06,29,10.50
2009,09,22,06,30,10.50
2009,09,22,06,31,10.40
2009,09,22,06,32,10.40
2009,09,22,06,33,10.40
2009,09,22,06,34,10.40
2009,09,22,06,35,10.40
2009,09,22,06,36,10.40
2009,09,22,06,37,10.40
2009,09,22,06,38,10.40
2009,09,22,06,39,10.40
2009,09,22,06,40,10.40
2009,09,22,06,41,10.40
2009,09,22,06,42,10.40
2009,09,22,06,43,10.40
2009,09,22,06,44,10.40
2009,09,22,06,45,10.40
2009,09,22,06,46,10.40
2009,09,22,06,47,10.40
2009,09,22,06,48,10.40
2009,09,22,06,49,10.40
2009,09,22,06,50,10.40
2009,09,22,06,51,10.40
2009,09,22,06,52,10.30
2009,09,22,06,53,10.30
2009,09,22,06,54,10.30
2009,09,22,06,55,10.30
2009,09,22,06,56,10.30
2009,09,22,06,57,10.30
2009,09,22,06,58,10.30
2009,09,22,06,59,10.30
2009,09,22,07,00,10.20
2009,09,22,07,01,10.20
2009,09,22,07,02,10.20
2009,09,22,07,03,10.20
2009,09,22,07,04,10.20
2009,09,22,07,05,10.10
2009,09,22,07,06,10.10
2009,09,22,07,07,10.10
2009,09,22,07,08,10.10
2009,09,22,07,09,10.10
2009,09,22,07,10,10.10
2009,09,22,07,11,10.00
2009,09,22,07,12,10.00
2009,09,22,07,13,10.00
2009,09,22,07,14,10.00
2009,09,22,07,15,10.00
2009,09,22,07,16,10.00
2009,09,22,07,17,10.00
2009,09,22,07,18,10.00
2009,09,22,07,19,10.00
2009,09,22,07,20,10.00
2009,09,22,07,21,10.00
2009,09,22,07,22,10.00
2009,09,22,07,23,10.10
2009,09,22,07,24,10.00
2009,09,22,07,25,10.00
2009,09,22,07,26,10.00
2009,09,22,07,27,10.00
2009,09,22,07,28,10.00
2009,09,22,07,29,10.00
2009,09,22,07,30,9.90
2009,09,22,07,31,9.90
2009,09,22,07,32,9.90
2009,09,22,07,33,9.90
2009,09,22,07,34,9.90
2009,09,22,07,35,9.90
2009,09,22,07,36,9.90
2009,09,22,07,37,9.90
2009,09,22,07,38,9.90
2009,09,22,07,39,9.90
2009,09,22,07,40,10.00
2009,09,22,07,41,10.00
2009,09,22,07,42,10.00
2009,09,22,07,43,10.10
2009,09,22,07,44,10.20
2009,09,22,07,45,10.20
2009,09,22,07,46,10.30
2009,09,22,07,47,10.30
2009,09,22,07,48,10.30
2009,09,22,07,49,10.40
2009,09,22,07,50,10.40
2009,09,22,07,51,10.50
2009,09,22,07,52,10.50
2009,09,22,07,53,10.50
2009,09,22,07,54,10.60
2009,09,22,07,55,10.60
2009,09,22,07,56,10.60
2009,09,22,07,57,10.60
2009,09,22,07,58,10.60
2009,09,22,07,59,10.70
2009,09,22,08,00,10.70
2009,09,22,08,01,10.70
2009,09,22,08,02,10.70
2009,09,22,08,03,10.70
2009,09,22,08,04,10.80
2009,09,22,08,05,10.80
2009,09,22,08,06,10.80
2009,09,22,08,07,10.90
2009,09,22,08,08,10.90
2009,09,22,08,09,11.00
2009,09,22,08,10,11.00
2009,09,22,08,11,11.10
2009,09,22,08,12,11.10
2009,09,22,08,13,11.20
2009,09,22,08,14,11.20
2009,09,22,08,15,11.20
2009,09,22,08,16,11.30
2009,09,22,08,17,11.30
2009,09,22,08,18,11.40
2009,09,22,08,19,11.40
2009,09,22,08,20,11.50
2009,09,22,08,21,11.60
2009,09,22,08,22,11.60
2009,09,22,08,23,11.70
2009,09,22,08,24,11.80
2009,09,22,08,25,11.80
2009,09,22,08,26,12.00
2009,09,22,08,27,12.10
2009,09,22,08,28,12.20
2009,09,22,08,29,12.30
2009,09,22,08,30,12.50
2009,09,22,08,31,12.60
2009,09,22,08,32,12.80
2009,09,22,08,33,12.90
2009,09,22,08,34,13.00
2009,09,22,08,35,13.10
2009,09,22,08,36,13.20
2009,09,22,08,37,13.30
2009,09,22,08,38,13.40
2009,09,22,08,39,13.60
2009,09,22,08,40,13.70
2009,09,22,08,41,13.80
2009,09,22,08,42,13.90
2009,09,22,08,43,14.00
2009,09,22,08,44,14.00
2009,09,22,08,45,14.20
2009,09,22,08,46,14.40
2009,09,22,08,47,14.60
2009,09,22,08,48,14.80
2009,09,22,08,49,14.90
2009,09,22,08,50,15.00
2009,09,22,08,51,15.00
2009,09,22,08,52,15.00
2009,09,22,08,53,15.20
2009,09,22,08,54,15.30
2009,09,22,08,55,15.30
2009,09,22,08,56,15.40
2009,09,22,08,57,15.50
2009,09,22,08,58,15.70
2009,09,22,08,59,15.80
2009,09,22,09,00,15.90
2009,09,22,09,01,16.00
2009,09,22,09,02,16.10
2009,09,22,09,03,16.30
2009,09,22,09,04,16.40
2009,09,22,09,05,16.50
2009,09,22,09,06,16.70
2009,09,22,09,07,16.90
2009,09,22,09,08,17.10
2009,09,22,09,09,17.30
2009,09,22,09,10,17.50
2009,09,22,09,11,17.60
2009,09,22,09,12,17.80
2009,09,22,09,13,18.00
2009,09,22,09,14,18.20
2009,09,22,09,15,18.40
2009,09,22,09,16,18.50
2009,09,22,09,17,18.60
2009,09,22,09,18,18.70
2009,09,22,09,19,18.80
2009,09,22,09,20,18.80
2009,09,22,09,21,18.90
2009,09,22,09,22,19.00
2009,09,22,09,23,19.00
2009,09,22,09,24,19.10
2009,09,22,09,25,19.10
2009,09,22,09,26,19.20
2009,09,22,09,27,19.20
2009,09,22,09,28,19.30
2009,09,22,09,29,19.30
2009,09,22,09,30,19.30
2009,09,22,09,31,19.30
2009,09,22,09,32,19.30
2009,09,22,09,33,19.40
2009,09,22,09,34,19.40
2009,09,22,09,35,19.50
2009,09,22,09,36,19.50
2009,09,22,09,37,19.50
2009,09,22,09,38,19.50
2009,09,22,09,39,19.60
2009,09,22,09,40,19.60
2009,09,22,09,41,19.60
2009,09,22,09,42,19.60
2009,09,22,09,43,19.70
2009,09,22,09,44,19.70
2009,09,22,09,45,19.70
2009,09,22,09,46,19.70
2009,09,22,09,47,19.80
2009,09,22,09,48,19.80
2009,09,22,09,49,19.80
2009,09,22,09,50,19.80
2009,09,22,09,51,19.80
2009,09,22,09,52,19.80
2009,09,22,09,53,19.80
2009,09,22,09,54,19.80
2009,09,22,09,55,19.80
2009,09,22,09,56,19.80
2009,09,22,09,57,19.80
2009,09,22,09,58,19.80
2009,09,22,09,59,19.80
2009,09,22,10,00,19.80
2009,09,22,10,01,19.80
2009,09,22,10,02,19.80
2009,09,22,10,03,19.80
2009,09,22,10,04,19.80
2009,09,22,10,05,19.80
2009,09,22,10,06,19.80
2009,09,22,10,07,19.80
2009,09,22,10,08,19.80
2009,09,22,10,09,19.80
2009,09,22,10,10,19.80
2009,09,22,10,11,19.80
2009,09,22,10,12,19.80
2009,09,22,10,13,19.80
2009,09,22,10,14,19.80
2009,09,22,10,15,19.90
2009,09,22,10,16,19.90
2009,09,22,10,17,19.90
2009,09,22,10,18,19.90
2009,09,22,10,19,19.90
2009,09,22,10,20,19.90
2009,09,22,10,21,20.00
2009,09,22,10,22,19.90
2009,09,22,10,23,20.00
2009,09,22,10,24,19.90
2009,09,22,10,25,19.90
2009,09,22,10,26,19.90
2009,09,22,10,27,19.90
2009,09,22,10,28,20.00
2009,09,22,10,29,20.00
2009,09,22,10,30,20.00
2009,09,22,10,31,20.00
2009,09,22,10,32,20.10
2009,09,22,10,33,20.10
2009,09,22,10,34,20.10
2009,09,22,10,35,20.10
2009,09,22,10,36,20.10
2009,09,22,10,37,20.20
2009,09,22,10,38,20.20
2009,09,22,10,39,20.20
2009,09,22,10,40,20.30
2009,09,22,10,41,20.30
2009,09,22,10,42,20.30
2009,09,22,10,43,20.40
2009,09,22,10,44,20.40
2009,09,22,10,45,20.40
2009,09,22,10,46,20.50
2009,09,22,10,47,20.50
2009,09,22,10,48,20.50
2009,09,22,10,49,20.50
2009,09,22,10,50,20.50
2009,09,22,10,51,20.50
2009,09,22,10,52,20.50
2009,09,22,10,53,20.50
2009,09,22,10,54,20.40
2009,09,22,10,55,20.50
2009,09,22,10,56,20.50
2009,09,22,10,57,20.50
2009,09,22,10,58,20.50
2009,09,22,10,59,20.50
2009,09,22,11,00,20.60
2009,09,22,11,01,20.60
2009,09,22,11,02,20.60
2009,09,22,11,03,20.60
2009,09,22,11,04,20.70
2009,09,22,11,05,20.70
2009,09,22,11,06,20.70
2009,09,22,11,07,20.70
2009,09,22,11,08,20.70
2009,09,22,11,09,20.60
2009,09,22,11,10,20.60
2009,09,22,11,11,20.50
2009,09,22,11,12,20.50
2009,09,22,11,13,20.50
2009,09,22,11,14,20.40
2009,09,22,11,15,20.40
2009,09,22,11,16,20.40
2009,09,22,11,17,20.40
2009,09,22,11,18,20.30
2009,09,22,11,19,20.30
2009,09,22,11,20,20.30
2009,09,22,11,21,20.40
2009,09,22,11,22,20.40
2009,09,22,11,23,20.40
2009,09,22,11,24,20.40
2009,09,22,11,25,20.40
2009,09,22,11,26,20.50
2009,09,22,11,27,20.50
2009,09,22,11,28,20.60
2009,09,22,11,29,20.60
2009,09,22,11,30,20.60
2009,09,22,11,31,20.60
2009,09,22,11,32,20.60
2009,09,22,11,33,20.60
2009,09,22,11,34,20.70
2009,09,22,11,35,20.70
2009,09,22,11,36,20.80
2009,09,22,11,37,20.80
2009,09,22,11,38,20.90
2009,09,22,11,39,20.90
2009,09,22,11,40,21.00
2009,09,22,11,41,21.00
2009,09,22,11,42,21.10
2009,09,22,11,43,21.20
2009,09,22,11,44,21.20
2009,09,22,11,45,21.30
2009,09,22,11,46,21.40
2009,09,22,11,47,21.50
2009,09,22,11,48,21.60
2009,09,22,11,49,21.60
2009,09,22,11,50,21.60
2009,09,22,11,51,21.70
2009,09,22,11,52,21.60
2009,09,22,11,53,21.70
2009,09,22,11,54,21.70
2009,09,22,11,55,21.60
2009,09,22,11,56,21.60
2009,09,22,11,57,21.60
2009,09,22,11,58,21.60
2009,09,22,11,59,21.70
2009,09,22,12,00,21.60
2009,09,22,12,01,21.60
2009,09,22,12,02,21.60
2009,09,22,12,03,21.70
2009,09,22,12,04,21.70
2009,09,22,12,05,21.70
2009,09,22,12,06,21.70
2009,09,22,12,07,21.70
2009,09,22,12,08,21.80
2009,09,22,12,09,21.80
2009,09,22,12,10,21.70
2009,09,22,12,11,21.70
2009,09,22,12,12,21.70
2009,09,22,12,13,21.70
2009,09,22,12,14,21.60
2009,09,22,12,15,21.60
2009,09,22,12,16,21.60
2009,09,22,12,17,21.60
2009,09,22,12,18,21.60
2009,09,22,12,19,21.60
2009,09,22,12,20,21.70
2009,09,22,12,21,21.80
2009,09,22,12,22,21.80
2009,09,22,12,23,21.90
2009,09,22,12,24,22.00
2009,09,22,12,25,22.10
2009,09,22,12,26,22.10
2009,09,22,12,27,22.20
2009,09,22,12,28,22.30
2009,09,22,12,29,22.40
2009,09,22,12,30,22.40
2009,09,22,12,31,22.50
2009,09,22,12,32,22.50
2009,09,22,12,33,22.40
2009,09,22,12,34,22.40
2009,09,22,12,35,22.30
2009,09,22,12,36,22.30
2009,09,22,12,37,22.30
2009,09,22,12,38,22.30
2009,09,22,12,39,22.40
2009,09,22,12,40,22.40
2009,09,22,12,41,22.50
2009,09,22,12,42,22.50
2009,09,22,12,43,22.60
2009,09,22,12,44,22.70
2009,09,22,12,45,22.80
2009,09,22,12,46,22.90
2009,09,22,12,47,23.00
2009,09,22,12,48,23.10
2009,09,22,12,49,23.10
2009,09,22,12,50,23.20
2009,09,22,12,51,23.20
2009,09,22,12,52,23.20
2009,09,22,12,53,23.20
2009,09,22,12,54,23.30
2009,09,22,12,55,23.30
2009,09,22,12,56,23.30
2009,09,22,12,57,23.30
2009,09,22,12,58,23.30
2009,09,22,12,59,23.30
2009,09,22,13,00,23.20
2009,09,22,13,01,23.20
2009,09,22,13,02,23.10
2009,09,22,13,03,23.10
2009,09,22,13,04,23.10
2009,09,22,13,05,23.20
2009,09,22,13,06,23.20
2009,09,22,13,07,23.20
2009,09,22,13,08,23.30
2009,09,22,13,09,23.30
2009,09,22,13,10,23.30
2009,09,22,13,11,23.30
2009,09,22,13,12,23.40
2009,09,22,13,13,23.40
2009,09,22,13,14,23.40
2009,09,22,13,15,23.40
2009,09,22,13,16,23.40
2009,09,22,13,17,23.30
2009,09,22,13,18,23.20
2009,09,22,13,19,23.20
2009,09,22,13,20,23.20
2009,09,22,13,21,23.30
2009,09,22,13,22,23.30
2009,09,22,13,23,23.30
2009,09,22,13,24,23.40
2009,09,22,13,25,23.40
2009,09,22,13,26,23.40
2009,09,22,13,27,23.40
2009,09,22,13,28,23.40
2009,09,22,13,29,23.50
2009,09,22,13,30,23.50
2009,09,22,13,31,23.50
2009,09,22,13,32,23.40
2009,09,22,13,33,23.40
2009,09,22,13,34,23.30
2009,09,22,13,35,23.30
2009,09,22,13,36,23.20
2009,09,22,13,37,23.20
2009,09,22,13,38,23.20
2009,09,22,13,39,23.20
2009,09,22,13,40,23.20
2009,09,22,13,41,23.30
2009,09,22,13,42,23.40
2009,09,22,13,43,23.40
2009,09,22,13,44,23.40
2009,09,22,13,45,23.40
2009,09,22,13,46,23.40
2009,09,22,13,47,23.40
2009,09,22,13,48,23.50
2009,09,22,13,49,23.50
2009,09,22,13,50,23.50
2009,09,22,13,51,23.50
2009,09,22,13,52,23.40
2009,09,22,13,53,23.40
2009,09,22,13,54,23.40
2009,09,22,13,55,23.40
2009,09,22,13,56,23.40
2009,09,22,13,57,23.50
2009,09,22,13,58,23.60
2009,09,22,13,59,23.60
2009,09,22,14,00,23.70
2009,09,22,14,01,23.80
2009,09,22,14,02,23.80
2009,09,22,14,03,23.90
2009,09,22,14,04,23.90
2009,09,22,14,05,24.00
2009,09,22,14,06,24.10
2009,09,22,14,07,24.10
2009,09,22,14,08,24.10
2009,09,22,14,09,24.20
2009,09,22,14,10,24.20
2009,09,22,14,11,24.20
2009,09,22,14,12,24.20
2009,09,22,14,13,24.30
2009,09,22,14,14,24.30
2009,09,22,14,15,24.40
2009,09,22,14,16,24.40
2009,09,22,14,17,24.50
2009,09,22,14,18,24.50
2009,09,22,14,19,24.60
2009,09,22,14,20,24.50
2009,09,22,14,21,24.50
2009,09,22,14,22,24.50
2009,09,22,14,23,24.50
2009,09,22,14,24,24.40
2009,09,22,14,25,24.50
2009,09,22,14,26,24.50
2009,09,22,14,27,24.60
2009,09,22,14,28,24.60
2009,09,22,14,29,24.60
2009,09,22,14,30,24.70
2009,09,22,14,31,24.70
2009,09,22,14,32,24.80
2009,09,22,14,33,24.80
2009,09,22,14,34,24.90
2009,09,22,14,35,24.90
2009,09,22,14,36,25.00
2009,09,22,14,37,25.00
2009,09,22,14,38,25.10
2009,09,22,14,39,25.10
2009,09,22,14,40,25.10
2009,09,22,14,41,25.10
2009,09,22,14,42,25.10
2009,09,22,14,43,25.10
2009,09,22,14,44,25.10
2009,09,22,14,45,25.10
2009,09,22,14,46,25.10
2009,09,22,14,47,25.00
2009,09,22,14,48,24.90
2009,09,22,14,49,24.90
2009,09,22,14,50,24.90
2009,09,22,14,51,24.90
2009,09,22,14,52,25.00
2009,09,22,14,53,25.00
2009,09,22,14,54,25.10
2009,09,22,14,55,25.10
2009,09,22,14,56,25.20
2009,09,22,14,57,25.20
2009,09,22,14,58,25.10
2009,09,22,14,59,25.10
2009,09,22,15,00,25.00
2009,09,22,15,01,25.00
2009,09,22,15,02,25.00
2009,09,22,15,03,25.00
2009,09,22,15,04,24.90
2009,09,22,15,05,24.90
2009,09,22,15,06,24.90
2009,09,22,15,07,24.90
2009,09,22,15,08,24.90
2009,09,22,15,09,24.80
2009,09,22,15,10,24.80
2009,09,22,15,11,24.80
2009,09,22,15,12,24.80
2009,09,22,15,13,24.80
2009,09,22,15,14,24.80
2009,09,22,15,15,24.80
2009,09,22,15,16,24.80
2009,09,22,15,17,24.80
2009,09,22,15,18,24.90
2009,09,22,15,19,24.90
2009,09,22,15,20,24.90
2009,09,22,15,21,24.90
2009,09,22,15,22,25.00
2009,09,22,15,23,25.00
2009,09,22,15,24,24.90
2009,09,22,15,25,25.00
2009,09,22,15,26,25.00
2009,09,22,15,27,25.00
2009,09,22,15,28,25.00
2009,09,22,15,29,25.00
2009,09,22,15,30,24.90
2009,09,22,15,31,24.80
2009,09,22,15,32,24.80
2009,09,22,15,33,24.80
2009,09,22,15,34,24.80
2009,09,22,15,35,24.80
2009,09,22,15,36,24.80
2009,09,22,15,37,24.80
2009,09,22,15,38,24.70
2009,09,22,15,39,24.80
2009,09,22,15,40,24.80
2009,09,22,15,41,24.80
2009,09,22,15,42,24.80
2009,09,22,15,43,24.80
2009,09,22,15,44,24.80
2009,09,22,15,45,24.80
2009,09,22,15,46,24.80
2009,09,22,15,47,24.80
2009,09,22,15,48,24.80
2009,09,22,15,49,24.80
2009,09,22,15,50,24.80
2009,09,22,15,51,24.80
2009,09,22,15,52,24.80
2009,09,22,15,53,24.80
2009,09,22,15,54,24.80
2009,09,22,15,55,24.70
2009,09,22,15,56,24.70
2009,09,22,15,57,24.70
2009,09,22,15,58,24.60
2009,09,22,15,59,24.60
2009,09,22,16,00,24.60
2009,09,22,16,01,24.70
2009,09,22,16,02,24.70
2009,09,22,16,03,24.70
2009,09,22,16,04,24.70
2009,09,22,16,05,24.70
2009,09,22,16,06,24.70
2009,09,22,16,07,24.80
2009,09,22,16,08,24.80
2009,09,22,16,09,24.80
2009,09,22,16,10,24.80
2009,09,22,16,11,24.80
2009,09,22,16,12,24.80
2009,09,22,16,13,24.80
2009,09,22,16,14,24.80
2009,09,22,16,15,24.80
2009,09,22,16,16,24.80
2009,09,22,16,17,24.80
2009,09,22,16,18,24.80
2009,09,22,16,19,24.80
2009,09,22,16,20,24.80
2009,09,22,16,21,24.80
2009,09,22,16,22,24.80
2009,09,22,16,23,24.70
2009,09,22,16,24,24.70
2009,09,22,16,25,24.70
2009,09,22,16,26,24.70
2009,09,22,16,27,24.70
2009,09,22,16,28,24.70
2009,09,22,16,29,24.70
2009,09,22,16,30,24.70
2009,09,22,16,31,24.70
2009,09,22,16,32,24.70
2009,09,22,16,33,24.70
2009,09,22,16,34,24.70
2009,09,22,16,35,24.70
2009,09,22,16,36,24.70
2009,09,22,16,37,24.70
2009,09,22,16,38,24.60
2009,09,22,16,39,24.60
2009,09,22,16,40,24.60
2009,09,22,16,41,24.60
2009,09,22,16,42,24.60
2009,09,22,16,43,24.50
2009,09,22,16,44,24.50
2009,09,22,16,45,24.40
2009,09,22,16,46,24.40
2009,09,22,16,47,24.40
2009,09,22,16,48,24.30
2009,09,22,16,49,24.30
2009,09,22,16,50,24.30
2009,09,22,16,51,24.30
2009,09,22,16,52,24.20
2009,09,22,16,53,24.20
2009,09,22,16,54,24.20
2009,09,22,16,55,24.20
2009,09,22,16,56,24.10
2009,09,22,16,57,24.10
2009,09,22,16,58,24.10
2009,09,22,16,59,24.10
2009,09,22,17,00,24.10
2009,09,22,17,01,24.10
2009,09,22,17,02,24.10
2009,09,22,17,03,24.10
2009,09,22,17,04,24.10
2009,09,22,17,05,24.10
2009,09,22,17,06,24.10
2009,09,22,17,07,24.10
2009,09,22,17,08,24.10
2009,09,22,17,09,24.10
2009,09,22,17,10,24.10
2009,09,22,17,11,24.10
2009,09,22,17,12,24.10
2009,09,22,17,13,24.10
2009,09,22,17,14,24.10
2009,09,22,17,15,24.10
2009,09,22,17,16,24.10
2009,09,22,17,17,24.10
2009,09,22,17,18,24.10
2009,09,22,17,19,24.10
2009,09,22,17,20,24.00
2009,09,22,17,21,24.10
2009,09,22,17,22,24.00
2009,09,22,17,23,24.00
2009,09,22,17,24,24.00
2009,09,22,17,25,24.00
2009,09,22,17,26,24.00
2009,09,22,17,27,24.00
2009,09,22,17,28,24.00
2009,09,22,17,29,24.00
2009,09,22,17,30,24.00
2009,09,22,17,31,24.00
2009,09,22,17,32,23.90
2009,09,22,17,33,23.90